Location: ????? ???????
(25.7275°N, 32.5929°E)
Time: 10:45:48
(UTC+00:00)

ARGOS - Pass Details

Date: 02 March 2021
Orbit: 819 x 835 km, 98.4° (Epoch: 15 April)

Event Time Altitude Azimuth Distance (km) Brightness Sun altitude
Rises 16:21:08 0° 145° (SE) 3,360 6.0 -7.4°
Reaches altitude 10° 16:23:40 10° 136° (SE) 2,431 5.2 -7.9°
Maximum altitude 16:28:28 34° 73° (ENE) 1,350 3.8 -9.0°
Drops below altitude 10° 16:33:17 10° 10° (N) 2,446 5.5 -10.1°
Sets 16:35:50 0° 1° (N) 3,383 6.3 -10.7°
